USA 270

Last updated on Nov. 14, 2019, 4:21 a.m. UTC

1 41744U 16052A   19316.98255152  .00000107  00000-0  00000+0 0  9998
2 41744   0.0598  94.0721 0005739 192.0061 170.6275  1.00389320  3995
UTC
Height (km)
Latitude
Longitude
Inclination
Orbital Period
UTC large
Height (km)
Speed (km/s)
/
Latitude / Longitude
Inclination (degrees)
Orbital Period (minutes)
Azimuth
Elevation
Range (km)
Doppler Factor
iOS Compass Heading
iOS Angle

Next 30 passes for location: Hong Kong

Rise time Rise Azimuth (degrees) Set time Set Azimuth (degrees) Duration Max altitude (degrees)

No matching passes for this satellites